This is the latest recevied weather packets stored in our database for station/object K5MGY. If no packets are shown the sender has not sent any weather packets the latest 10 day(s).
| Time | Temp. | Humidity | Pressure | Rain* | Wind** | Luminosity | Snow |
|---|---|---|---|---|---|---|---|
| 1788617253 | 29.44° C | 67% | 1039 hPa | 0 mm | - | 190 W/m² | - |
| 1788616953 | 29.44° C | 69% | 1038.7 hPa | 0 mm | - | 176 W/m² | - |
| 1788616652 | 28.89° C | 69% | 1038.7 hPa | 0 mm | - | 28 W/m² | - |
| 1788616348 | 28.89° C | 71% | 1038.7 hPa | 0 mm | - | 145 W/m² | - |
| 1788616047 | 28.33° C | 72% | 1038.7 hPa | 0 mm | - | 135 W/m² | - |
| 1788615747 | 27.22° C | 75% | 1038.6 hPa | 0 mm | - | 78 W/m² | - |
| 1788615442 | 26.67° C | 76% | 1038.6 hPa | 0 mm | - | 94 W/m² | - |
| 1788615137 | 26.67° C | 77% | 1038.6 hPa | 0 mm | - | 27 W/m² | - |
| 1788614836 | 26.11° C | 78% | 1038.4 hPa | 0 mm | - | 40 W/m² | - |
| 1788614532 | 26.11° C | 79% | 1038.4 hPa | 0 mm | - | 22 W/m² | - |
| 1788614227 | 26.11° C | 79% | 1038.6 hPa | 0 mm | - | 21 W/m² | - |
| 1788613923 | 25.56° C | 79% | 1038.4 hPa | 0 mm | - | 19 W/m² | - |
| 1788613622 | 25.56° C | 79% | 1038.4 hPa | 0 mm | - | 15 W/m² | - |
| 1788613316 | 25.56° C | 79% | 1038.2 hPa | 0 mm | - | 14 W/m² | - |
| 1788613016 | 25.56° C | 80% | 1038.2 hPa | 0 mm | - | 14 W/m² | - |
| 1788612712 | 25.56° C | 80% | 1038.2 hPa | 0 mm | - | 13 W/m² | - |
| 1788612432 | 25.56° C | 80% | 1038 hPa | 0 mm | - | 13 W/m² | - |
| 1788612104 | 25° C | 80% | 1037.9 hPa | 0 mm | - | 12 W/m² | - |
| 1788611798 | 25° C | 81% | 1037.9 hPa | 0 mm | - | 11 W/m² | - |
| 1788611496 | 25° C | 81% | 1037.9 hPa | 0 mm | - | 9 W/m² | - |
| 1788611195 | 25° C | 80% | 1038 hPa | 0 mm | - | 8 W/m² | - |
| 1788610890 | 25° C | 81% | 1038.2 hPa | 0 mm | - | 6 W/m² | - |
| 1788610585 | 25° C | 80% | 1038.1 hPa | 0 mm | - | 4 W/m² | - |
| 1788610280 | 25° C | 80% | 1038 hPa | 0 mm | - | 3 W/m² | - |
| 1788609979 | 25° C | 81% | 1038.1 hPa | 0 mm | - | 2 W/m² | - |
* Rain latest hour (hover to see other rain measurements)
** Current wind speed in m/s (hover to see current wind gust speed)